Alexandria, MN

4:57 PM CDT on October 20, 2019 (GMT -0500)
Chandler

Weather History for KAXN - September, 2019

Change the Weather History Date:

Friday, September 20, 2019

  Actual Average Record
Temperature  
Mean Temperature 74 °F -  
Max Temperature 84 °F 63 °F 82 °F (2005)
Min Temperature 64 °F 45 °F 30 °F (1962)
Cooling Degree Days 9    
Growing Degree Days 24 (Base 50)    
Moisture  
Dew Point 67 °F    
Average Humidity 80    
Maximum Humidity 93    
Minimum Humidity 63    
Precipitation  
Precipitation 0.00 in - - ()
Sea Level Pressure  
Sea Level Pressure 29.94 in    
Wind  
Wind Speed 10 mph ()    
Max Wind Speed 20 mph    
Max Gust Speed 25 mph    
Visibility 10.0 miles    
Events      
Averages and records for this station are not official NWS values.
T = Trace of Precipitation, MM = Missing Value Source: Averaged Metar Reports

Daily Weather History Graph

Daily Weather History Graph

Search for Another Location

Airport or City:

Astronomy

Sep. 20, 2019 Rise Set
Actual Time 7:05 AM CDT 7:23 PM CDT
Civil Twilight 6:35 AM CDT 7:53 PM CDT
Nautical Twilight 6:00 AM CDT 8:28 PM CDT
Astronomical Twilight 5:24 AM CDT 9:04 PM CDT
Moon 10:55 PM CDT 1:29 PM CDT
Length of Visible Light 13h 17m
Length of Day
12h 17m
Waning Gibbous, 65% of the Moon is Illuminated
Sep 20
Waning Gibbous
Sep 21
Last Quarter
Sep 28
New
Oct 5
First Quarter
Oct 13
Full

Hourly Weather History & Observations

Time (CDT) Temp. Heat Index Dew Point Humidity Pressure Visibility Wind Dir Wind Speed Gust Speed Precip Events Conditions
12:53 AM 64.0 °F - 60.1 °F 87% 30.02 in 10.0 mi ESE 5.8 mph - N/A   Clear
1:53 AM 64.0 °F - 60.1 °F 87% 30.03 in 10.0 mi ESE 5.8 mph - N/A   Clear
2:53 AM 64.0 °F - 60.1 °F 87% 30.02 in 10.0 mi ESE 6.9 mph - N/A   Clear
3:53 AM 64.9 °F - 61.0 °F 87% 30.01 in 10.0 mi ESE 9.2 mph - N/A   Clear
4:53 AM 64.0 °F - 62.1 °F 93% 30.00 in 10.0 mi SE 8.1 mph - N/A   Clear
5:53 AM 64.9 °F - 62.1 °F 90% 29.99 in 10.0 mi SE 8.1 mph - N/A   Partly Cloudy
6:53 AM 64.9 °F - 63.0 °F 93% 29.99 in 10.0 mi SE 8.1 mph - N/A   Partly Cloudy
7:53 AM 66.0 °F - 63.0 °F 90% 29.98 in 10.0 mi SE 11.5 mph - N/A   Partly Cloudy
8:53 AM 68.0 °F - 64.9 °F 90% 29.99 in 10.0 mi SE 11.5 mph - N/A   Clear
9:53 AM 73.0 °F - 66.9 °F 81% 29.97 in 10.0 mi SSE 13.8 mph - N/A   Clear
10:53 AM 75.9 °F - 69.1 °F 79% 29.95 in 10.0 mi SE 17.3 mph 23.0 mph N/A   Scattered Clouds
11:10 AM 75.9 °F - 69.1 °F 79% 29.96 in 10.0 mi SE 13.8 mph 25.3 mph N/A   Mostly Cloudy
11:41 AM 78.1 °F - 70.0 °F 76% 29.96 in 10.0 mi SSE 13.8 mph - N/A   Scattered Clouds
11:53 AM 78.1 °F - 70.0 °F 76% 29.94 in 10.0 mi SSE 15.0 mph - N/A   Partly Cloudy
12:53 PM 80.1 °F 83.2 °F 70.0 °F 71% 29.94 in 10.0 mi SSE 13.8 mph 21.9 mph N/A   Clear
1:53 PM 82.0 °F 86.3 °F 71.1 °F 69% 29.92 in 10.0 mi SE 15.0 mph - N/A   Scattered Clouds
2:53 PM 84.0 °F 88.4 °F 70.0 °F 63% 29.91 in 10.0 mi SSE 19.6 mph 25.3 mph N/A   Clear
3:53 PM 84.0 °F 88.4 °F 70.0 °F 63% 29.91 in 10.0 mi SSE 15.0 mph 25.3 mph N/A   Mostly Cloudy
4:53 PM 81.0 °F 84.9 °F 71.1 °F 72% 29.90 in 10.0 mi SE 15.0 mph - N/A   Mostly Cloudy
5:53 PM 81.0 °F 84.4 °F 70.0 °F 69% 29.88 in 10.0 mi SE 16.1 mph 23.0 mph N/A   Clear
6:53 PM 79.0 °F - 71.1 °F 77% 29.86 in 10.0 mi SE 12.7 mph 24.2 mph N/A   Clear
7:53 PM 77.0 °F - 71.1 °F 82% 29.86 in 10.0 mi SE 13.8 mph - N/A   Clear
8:53 PM 75.9 °F - 70.0 °F 82% 29.85 in 10.0 mi SE 10.4 mph 25.3 mph N/A   Clear
10:53 PM 73.9 °F - 69.1 °F 85% 29.84 in 10.0 mi SSE 13.8 mph - N/A   Partly Cloudy
11:53 PM 75.0 °F - 66.9 °F 76% 29.83 in 10.0 mi SSE 15.0 mph - N/A   Clear